Location: Haulchin
(50.3172°N, 3.4360°E)
Time: 20:07:52
(UTC+00:00)

USA 267 - Pass Details

Date: 23 May 2024
Orbit: 1100 x 1107 km, 123.0° (Epoch: 21 May)

Event Time Altitude Azimuth Distance (km) Brightness Sun altitude
Rises 00:15:53 0° 57° (ENE) 3,923 6.8 -18.7°
Reaches altitude 10° 00:18:22 10° 59° (ENE) 2,963 6.1 -18.6°
Maximum altitude 00:24:56 83° 147° (SSE) 1,113 3.2 -18.4°
Enters shadow 00:30:21 16° 235° (SW) 2,526 4.7 -18.3°
